Retour au catalogue

TITAN 3C TRANSTAGE DEB

LostHEO
NORAD 34171·DEBRIS·🇺🇸 United States

Lancé Dec 21, 1965 depuis Cape Canaveral Space Force Station

Loading…

Prochains Passages (prochaines 24 heures)

TLE

PériméSource: Space-Track

Époque: Apr 28, 2016, 11:36 UTC

1 34171U 65108DE  16119.48395110 -.00000209  00000-0 -57223-3 0  9990
2 34171  26.4553 302.9345 6667490 161.2053  46.0726  2.95334718135203

Suivez TITAN 3C TRANSTAGE DEB en temps réel avec AllMySat

Download on the App Store